Find Anik F1R

NORAD ID: 28868 Int'l Des: 2005-036 Owner: TCAN Country: CA operational
HEOCIRCULARGSO

实时位置

正在加载3D地球...

关于 Anik F1R

正在加载描述...

即将过境

Passes for default location (London). Set your location on the main map for personalized predictions.

高度历史

Loading altitude history...

两行轨道根数

1 28868U 05036A 26106.91833887 -.00000066 00000-0 00000-0 0 9991
2 28868 4.1557 77.3179 0003254 330.0876 20.9839 1.00272083 45835
Epoch: Apr 16, 2026 • Age: 7 hours

当前状态

高度 35795.1 km
速度 3.07 km/s
星下点 4.02°N, 107.22°W
发射日期 Sep 8, 2005
运行时间 20.6 years
类型 other

技术详情

分类 Payload
质量 4500.00 kg
干质量 2000.00 kg
总质量 4500.00 kg
长度 4.80 m
直径 2.40 m
跨度 35.00 m
形状 Box + 2 Pan
制造商 EADSB
平台类型 Eurostar 3000
阶段状态 In Orbit
所有者/国家 TCAN/CA

Most Searched